SCP
6 6 6 5 4 4 4 4 3 3 2 2 1 1 1 1 1 1 1 1 1 1 2 1 1 1 1 2 2 2 2 2 2 2 2 2 2 1 2 2 2 2 2
8 8 7 6 5 5 5 5 4 3 3 2 2 1 1 1 1 1 1 1 1 1 1 1 1 1 2 2 2 2 2 2 2 2 2 2 2 2 2 2 2 2 2
8 8 8 7 6 6 6 5 4 4 3 2 2 2 1 1 1 1 1 1 1 1 1 1 1 1 2 2 2 2 2 2 2 2 2 2 2 2 2 2 2 2 2
8 8 7 7 7 6 6 5 4 3 3 2 2 2 1 1 1 1 1 1 1 1 1 1 1 1 1 2 2 2 2 2 2 2 2 2 2 2 2 2 2 2 2
8 7 6 6 6 6 5 4 3 3 2 2 2 1 1 1 1 1 0 0 0 0 0 0 0 1 1 1 1 1 1 1 2 2 2 2 2 2 2 2 2 2 2
8 7 6 6 6 5 4 3 2 2 1 1 1 1 1 1 0 0 0 0 0 0 0 0 0 0 0 1 1 1 1 1 1 1 2 2 2 2 2 2 2 2 2
7 6 6 6 5 4 3 3 2 1 1 1 1 1 0 0 0 0 0 0 0 0 0 0 0 0 0 0 0 0 0 0 0 1 1 1 1 1 1 1 2 2 2
6 5 5 5 4 3 2 2 1 1 0 0 0 0 0 0 0 0 0 0 0 0 0 0 0 0 0 0 0 0 0 0 0 0 0 0 0 0 0 1 1 1 1
4 4 4 3 3 2 1 1 1 1 0 0 0 0 0 0 0 0 0 0 0 0 0 0 0 0 0 0 0 0 0 0 0 0 0 0 0 0 0 0 0 1 1
2 3 3 3 2 1 1 1 0 0 0 0 0 0 0 0 0 0 0 0 0 0 0 0 0 0 0 0 0 0 0 0 0 0 0 0 0 0 0 0 0 0 0
2 2 2 2 1 1 0 0 0 0 0 0 0 0 0 0 0 0 0 0 0 0 0 0 0 0 0 0 0 0 0 0 0 0 0 0 0 0 0 0 0 0 0
1 1 1 1 1 0 0 0 0 0 0 0 0 0 0 0 0 0 0 0 0 0 0 0 0 0 0 1 1 1 1 0 0 0 0 0 0 0 0 0 0 0 0
0 0 0 0 0 0 0 0 0 0 0 0 0 0 0 0 0 0 0 0 0 0 0 0 0 0 1 1 1 1 1 1 0 0 0 0 0 0 0 0 0 0 0
0 0 0 0 0 0 0 0 0 0 0 0 0 0 0 0 0 0 0 0 0 0 0 0 0 0 0 0 0 0 0 1 1 0 0 0 0 0 0 0 0 0 0
0 0 0 0 0 0 0 0 0 0 0 0 0 0 0 0 0 0 0 0 0 0 0 0 0 0 0 0 0 0 0 0 1 0 0 0 0 0 0 0 0 0 0
0 0 0 0 0 0 0 0 0 0 0 0 0 0 0 0 0 0 0 0 0 0 0 0 0 0 0 0 0 0 0 0 0 0 0 0 0 0 0 0 0 0 0
0 0 0 0 0 0 0 0 0 0 0 0 0 0 0 0 0 0 0 0 0 0 0 0 0 0 0 0 0 0 0 0 0 0 0 0 0 0 0 0 0 0 0
0 0 0 0 0 0 0 0 0 0 0 0 0 0 0 0 0 0 0 0 0 0 0 0 0 0 0 0 0 0 0 0 0 0 0 0 0 0 0 0 0 0 0
0 0 0 0 0 0 0 0 0 0 0 0 0 0 0 0 0 0 0 0 0 0 0 0 0 0 0 0 0 0 0 0 0 0 0 0 0 0 0 0 0 0 0
0 0 0 0 0 0 0 0 0 0 0 0 0 0 0 0 0 0 0 0 0 0 0 0 0 0 0 0 0 0 0 0 0 0 0 0 0 0 0 0 0 0 0
0 0 0 0 0 0 0 0 0 0 0 0 0 0 0 0 0 0 0 0 0 0 0 0 0 0 0 0 0 0 0 0 0 0 0 0 0 0 0 0 0 0 0
0 0 0 0 0 0 0 0 0 0 0 0 0 0 0 0 0 0 0 0 0 0 0 0 0 0 0 0 0 0 0 0 0 0 0 0 0 0 0 0 0 0 0
0 0 0 0 0 0 0 0 0 0 0 0 0 0 0 0 0 0 0 0 0 0 0 0 0 0 0 0 0 0 0 0 0 0 0 0 0 0 0 0 0 0 0
0 0 0 0 0 0 0 0 0 0 0 0 0 0 0 0 0 0 0 0 0 0 0 0 0 0 0 0 0 0 0 0 0 0 0 0 0 0 0 0 0 0 0
0 0 0 0 0 0 0 0 0 0 0 0 0 0 0 0 0 0 0 0 0 0 0 0 0 0 0 0 0 0 0 0 0 0 0 0 0 0 0 0 0 0 0
0 0 0 0 0 0 0 0 0 0 0 0 0 0 0 0 0 0 0 0 0 0 0 0 0 0 0 0 0 0 0 0 0 0 0 0 0 0 0 0 0 0 0
Wind_Speed
4 4 3 3 3 3 4 2 2 1 0 1 2 3 4 5 7 7 5 9 9 7 5 4 2 2 3 3 4 5 6 7 7 8 8 8 8 9 9 9 9 9 9
5 4 3 2 1 1 2 1 1 2 2 3 4 5 7 7 7 6 5 6 8 7 6 4 3 2 2 3 4 4 5 6 7 7 7 8 9 9 10 10 10 9 9
5 4 3 3 2 2 3 3 3 4 3 4 5 6 5 6 7 6 4 3 4 6 6 6 5 5 4 4 4 4 4 4 4 5 5 6 7 8 9 10 10 10 10
5 4 3 3 3 3 3 3 3 3 3 3 3 4 4 4 5 4 4 3 2 3 4 5 4 3 3 3 4 4 4 5 5 5 5 5 5 5 5 6 8 9 9
5 4 3 3 4 3 2 3 3 2 2 2 2 2 2 2 2 2 2 3 2 1 2 5 5 3 2 0 1 3 4 5 5 6 6 6 6 6 6 6 7 7 8
5 4 3 3 3 3 2 3 3 3 2 1 1 1 0 0 1 1 2 2 2 2 1 2 3 4 5 4 3 3 3 4 5 6 8 8 8 8 8 8 8 8 9
4 3 3 3 3 3 3 4 3 2 2 1 1 0 1 2 2 1 1 1 2 2 2 2 2 1 3 7 7 6 5 4 5 6 8 9 10 10 11 11 11 11 10
4 3 3 3 3 3 3 3 2 2 2 2 1 1 2 1 1 1 1 2 2 2 2 4 3 3 2 2 5 9 8 6 5 6 8 10 11 12 13 13 13 13 13
5 5 4 3 3 3 3 2 2 2 2 1 1 1 1 1 3 2 2 2 2 2 2 3 5 4 4 3 3 7 8 7 7 7 9 10 12 13 15 16 16 16 16
8 7 7 6 5 4 4 3 3 2 2 2 2 2 2 2 1 3 3 2 4 4 4 5 5 4 4 3 3 5 8 10 9 8 9 11 13 15 16 18 19 19 18
9 9 8 7 7 6 6 6 5 5 3 3 2 1 1 0 1 2 4 4 3 3 4 5 4 4 4 3 3 3 4 5 4 6 9 12 15 17 18 19 20 21 21
7 9 9 8 8 7 7 6 5 6 4 4 3 2 1 1 1 2 3 4 5 4 4 4 4 4 4 3 4 2 4 5 5 7 10 14 17 18 19 20 21 22 22
7 7 8 7 7 6 6 5 4 4 4 3 2 2 2 2 2 2 3 4 5 5 5 5 4 3 3 1 1 2 2 4 7 8 11 15 17 19 20 21 22 22 22
7 7 7 7 6 5 5 4 3 2 3 2 2 2 2 2 2 3 3 4 6 5 5 6 4 3 3 2 2 2 4 6 7 8 10 14 18 20 22 22 23 23 23
7 7 6 6 5 5 4 3 3 3 2 2 2 2 2 3 3 3 3 4 5 7 6 5 4 4 4 3 4 4 5 9 12 12 14 15 18 20 22 22 23 23 23
7 6 6 5 4 4 4 3 1 2 2 2 2 2 3 3 3 4 4 5 5 6 7 5 5 5 6 8 10 7 7 14 15 16 16 16 17 19 21 22 23 23 24
6 5 5 4 3 3 3 3 3 3 4 4 4 5 5 5 4 4 4 5 5 6 8 7 6 7 7 7 7 7 8 8 8 15 15 15 15 17 19 22 23 23 24
5 5 4 4 4 4 4 4 5 6 5 5 5 5 5 5 6 5 4 5 5 6 7 9 7 7 8 8 8 8 9 10 7 13 16 17 17 18 18 19 20 21 21
5 5 5 5 5 5 6 7 7 7 6 5 5 5 5 5 5 4 5 5 5 6 6 7 9 7 7 8 8 9 9 7 10 12 14 14 15 16 17 18 19 20 20
5 5 5 5 6 9 10 10 10 8 7 6 6 5 6 6 5 5 5 6 6 6 7 7 8 8 7 8 7 6 7 6 8 10 12 13 14 15 16 17 18 20 19
6 5 6 6 7 8 9 9 9 9 9 8 7 6 7 8 9 5 6 5 6 7 8 8 9 9 9 7 7 6 8 7 8 7 6 8 8 7 8 11 14 17 17
6 7 7 7 7 7 8 9 8 8 9 9 8 7 8 7 6 6 8 10 10 10 10 9 9 10 11 9 7 7 8 8 7 4 6 8 8 7 7 6 10 12 13
5 5 5 5 5 6 6 6 9 8 9 8 7 6 8 8 6 5 8 12 11 13 13 10 10 11 10 9 9 9 8 9 10 8 7 8 7 7 7 8 11 11 11
3 3 3 4 3 4 2 5 11 9 8 6 6 7 7 5 5 6 9 10 10 10 10 9 7 9 9 8 8 8 9 9 9 7 5 6 6 6 8 6 9 9 10
3 2 2 2 2 3 1 3 8 9 6 7 8 8 7 5 5 8 9 11 11 10 11 13 13 12 14 14 10 6 6 7 8 7 4 4 4 6 7 6 4 7 9
2 3 2 2 2 2 2 2 6 7 7 8 7 7 5 5 8 10 9 10 11 11 11 13 12 11 9 7 8 5 5 6 6 5 2 3 3 4 5 4 4 5 5
Wind_Direction
187 168 168 166 186 176 173 202 237 223 61 353 347 358 19 42 69 98 111 113 111 109 116 126 149 209 235 240 243 245 243 241 241 241 239 238 239 240 240 239 240 239 238
164 155 151 141 126 106 113 126 60 63 56 37 31 34 33 33 39 59 97 109 105 104 99 89 68 13 323 300 291 284 273 263 257 251 247 243 242 242 242 241 241 239 238
149 145 135 132 126 101 87 77 56 56 59 48 39 36 37 35 31 31 36 88 112 104 96 87 73 53 29 5 345 331 325 320 309 292 278 267 260 256 253 250 245 242 239
136 129 125 127 120 103 95 94 79 76 63 56 51 43 38 37 29 21 12 8 77 116 121 115 106 88 57 23 360 348 345 343 344 337 324 309 300 293 286 277 267 257 249
123 121 120 121 118 108 108 116 96 99 87 74 84 72 47 42 19 2 9 343 350 24 135 146 151 152 146 105 344 332 329 328 327 325 321 317 319 318 311 303 295 286 274
110 115 120 121 123 124 117 103 104 87 89 92 60 75 75 145 286 325 310 324 331 308 319 147 173 194 205 224 247 278 310 325 327 324 317 316 320 323 320 313 306 300 292
109 108 117 123 133 138 135 130 113 107 80 44 64 258 231 210 218 216 238 292 297 301 312 297 266 247 193 220 229 239 256 282 309 321 319 318 321 322 316 310 306 301 297
103 112 119 132 131 122 123 122 107 105 76 41 36 25 315 317 355 252 211 233 269 282 278 279 262 232 229 219 207 223 242 255 280 301 310 315 318 318 314 309 305 300 295
73 72 84 92 104 113 121 120 131 141 124 81 33 98 119 317 347 321 266 257 257 262 272 287 285 269 247 237 217 218 232 228 247 271 291 301 307 309 308 304 299 295 293
65 65 67 70 74 74 82 84 68 68 110 121 79 45 69 83 21 326 309 266 247 245 246 259 269 281 277 264 259 252 220 210 233 264 284 294 297 299 299 297 294 291 288
65 66 69 72 73 72 71 69 67 61 61 76 77 74 81 92 191 252 295 311 303 266 250 246 246 246 248 253 255 254 190 193 222 263 283 291 294 295 294 293 291 289 286
73 70 73 74 76 78 76 75 74 72 69 69 58 47 41 18 310 274 287 305 305 305 304 291 268 252 248 250 272 134 151 185 219 253 274 285 291 292 292 291 290 288 286
81 76 78 79 81 81 82 79 76 75 69 61 42 25 9 342 317 305 302 302 300 300 299 291 282 282 296 343 73 91 244 240 240 253 269 283 287 287 287 286 286 285 285
89 89 86 85 85 85 84 80 82 76 68 39 8 12 327 309 317 307 298 300 300 297 296 296 312 326 346 352 40 334 308 306 291 279 274 277 280 281 281 280 281 281 281
102 96 93 91 87 80 72 63 75 60 42 6 344 345 333 317 303 308 309 302 295 298 297 305 316 336 347 346 348 325 315 309 304 292 278 269 270 273 274 275 276 276 276
98 101 98 96 90 78 59 36 40 57 358 344 328 323 317 316 338 321 314 314 308 302 301 308 314 333 350 332 319 321 307 301 293 285 278 271 265 265 269 271 272 272 272
99 97 96 92 86 77 54 18 5 22 9 0 344 350 351 340 329 333 324 314 314 321 314 313 316 320 324 314 305 297 293 285 281 282 282 278 270 264 263 265 267 268 268
79 76 73 67 62 59 41 26 13 15 7 360 354 348 342 334 338 324 319 319 317 313 306 307 310 308 304 300 291 287 292 291 292 292 285 279 274 268 263 261 261 261 261
67 62 58 53 44 40 40 34 19 6 357 350 345 336 328 320 312 317 321 312 307 309 311 304 301 297 294 293 294 293 293 293 296 295 292 288 284 280 273 266 261 257 254
63 52 47 48 46 46 41 27 11 352 345 339 328 317 311 308 308 319 313 306 315 320 309 300 297 298 297 294 296 301 302 297 297 298 296 293 289 286 280 274 267 261 255
49 42 45 49 57 59 41 28 0 347 338 326 318 315 311 310 301 289 295 310 312 303 302 299 299 301 300 304 304 302 300 299 290 286 292 295 294 288 283 279 275 269 260
41 39 40 42 50 59 57 32 2 338 322 314 317 322 315 309 335 319 298 294 286 286 292 293 294 294 296 300 303 304 303 301 297 291 299 298 295 291 287 280 278 275 265
47 41 39 48 72 79 53 13 351 324 309 308 316 318 318 326 348 348 328 313 299 291 283 283 286 289 296 302 305 305 302 301 298 298 297 295 296 294 294 299 301 288 273
39 33 35 45 75 95 59 355 339 321 312 321 325 315 314 329 25 355 325 312 304 303 302 299 289 292 298 300 298 296 296 295 291 289 287 289 294 298 303 297 292 288 284
21 14 35 30 61 128 180 343 344 325 332 336 324 322 330 343 17 340 321 313 312 310 311 315 309 298 293 291 288 292 295 297 301 302 299 285 294 306 299 293 300 306 298
358 356 8 355 8 93 152 329 338 333 337 332 322 327 355 350 332 324 320 313 309 312 318 316 312 308 303 296 293 276 284 296 302 299 311 306 292 307 299 291 305 305 298